Location: Newark
(52.3735°N, 16.9806°E)
Time: 02:42:27
(UTC+00:00)

XW-2D - Visible Passes

Search period start: 29 November 2021 00:00
Search period end: 09 December 2021 00:00
Orbit: 504 x 522 km, 97.5° (Epoch: 28 November)

Date Brightness Start Highest point End Pass type
(mag) Time Alt. Az. Time Alt. Az. Time Alt. Az.
29 Nov ? 04:00:05 10° NE 04:02:46 18° E 04:05:28 10° SE visible
29 Nov ? 05:33:21 10° N 05:37:03 49° WNW 05:40:43 10° SW visible
29 Nov ? 16:18:34 10° S 16:22:09 44° W 16:25:47 10° NNW visible
30 Nov ? 03:45:07 10° ENE 03:46:56 13° E 03:48:46 10° ESE visible
30 Nov ? 05:17:36 10° N 05:21:26 72° WNW 05:25:12 10° SSW visible
30 Nov ? 16:02:43 10° S 16:06:27 66° WSW 16:10:12 10° NNW visible
01 Dec ? 05:01:56 10° NNE 05:05:46 78° ESE 05:09:34 10° S visible
01 Dec ? 15:47:01 10° SSE 15:50:46 84° ENE 15:54:33 10° NNW visible
01 Dec ? 17:24:22 10° W 17:25:21 11° W 17:26:19 10° WNW visible
02 Dec ? 04:46:19 10° NNE 04:50:04 53° E 04:53:48 10° S visible
02 Dec ? 15:31:27 10° SSE 15:35:07 57° ENE 15:38:50 10° N visible
02 Dec ? 17:07:11 10° SW 17:09:29 15° W 17:11:48 10° NW visible
03 Dec ? 04:30:47 10° NNE 04:34:20 36° E 04:37:52 10° SSE visible
03 Dec ? 15:15:59 10° SE 15:19:30 39° ENE 15:23:03 10° N visible
03 Dec ? 16:50:43 10° SW 16:53:39 22° W 16:56:39 10° NW visible
04 Dec ? 04:15:20 10° NE 04:18:34 25° E 04:21:46 10° SSE visible
04 Dec ? 05:49:09 10° N 05:52:38 34° WNW 05:56:06 10° SW visible
04 Dec ? 16:34:31 10° SSW 16:37:52 31° W 16:41:16 10° NNW visible
05 Dec ? 04:00:03 10° NE 04:02:45 18° E 04:05:27 10° SE visible
05 Dec ? 05:33:19 10° N 05:37:01 49° WNW 05:40:42 10° SW visible
05 Dec ? 16:18:31 10° S 16:22:06 44° W 16:25:46 10° NNW visible
06 Dec ? 03:45:05 10° ENE 03:46:54 13° E 03:48:43 10° ESE visible
06 Dec ? 05:17:34 10° N 05:21:23 72° WNW 05:25:10 10° SSW visible
06 Dec ? 16:02:39 10° S 16:06:23 66° WSW 16:10:10 10° NNW visible
07 Dec ? 05:01:52 10° NNE 05:05:42 78° ESE 05:09:30 10° S visible
07 Dec ? 15:46:55 10° SSE 15:50:41 84° ENE 15:54:30 10° NNW visible
07 Dec ? 17:24:13 10° WSW 17:25:16 11° W 17:26:19 10° WNW visible
08 Dec ? 04:46:14 10° NNE 04:50:00 53° E 04:53:43 10° S visible
08 Dec ? 15:31:20 10° SSE 15:35:01 57° ENE 15:38:46 10° N visible
08 Dec ? 17:07:03 10° SW 17:09:23 16° W 17:11:44 10° NW visible
